{"data":{"norad_id":61538,"intl_designator":"2024-184G","name":"STARLINK-11325 [DTC]","alt_names":[],"object_type":"PAYLOAD","status":"ACTIVE","operator":null,"country":"US","launch_date":"2024-10-15","launch_site_code":"AFWTR","launch_vehicle":null,"mission":null,"orbit_class":"UNKNOWN","rcs_meters":null,"size_class":null,"mass_kg":null,"dimensions":null,"purposes":["comms"],"wikipedia_slug":null,"has_3d_model":false,"image_url":null,"decayed_at":null,"tle_current":{"epoch":"2026-05-24T22:05:01.497408Z","epoch_age_seconds":85542,"freshness":"FRESH","line1":"1 61538U 24184G   26144.92015622  .00001367  00000+0  16138-4 0  9995","line2":"2 61538  53.1587 220.2176 0000786 230.1683 129.9266 15.69699519 92396","mean_motion":15.69699519,"eccentricity":7.86e-5,"inclination_deg":53.1587,"raan_deg":220.2176,"arg_perigee_deg":230.1683,"mean_anomaly_deg":129.9266,"bstar":1.6138e-5,"rev_number":9239,"period_min":91.737302749342,"perigee_km":359.22714474854,"apogee_km":360.28634164497,"semimajor_km":6737.8937431968,"source":"CELESTRAK","updated_at":"2026-05-25T13:38:19.398198Z"}}}